Tracking 35331 objects as of 14-Sep-2026
HD Live streaming from Space Station
objects crossing your sky now

SL-4 R/B


SL-4 R/B is no longer on orbit


NORAD ID: 39171
Int'l Code: 2013-025B
Launch date: May 28, 2013
Source: Commonwealth of Independent States (former USSR) (CIS)
Launch site: TYURATAM MISSILE AND SPACE COMPLEX (TTMTR)
Decay date: 2013-05-31

Note: This is a ROCKET BODY
Your satellite tracking list
Your tracking list is empty




NASA's NSSDC Master Catalog

Two Line Element Set (TLE):
1 39171U 13025B   13151.54277963  .15094921  12680-4  20407-3 0  9994
2 39171 051.6215 189.3401 0003896 062.9227 298.0045 16.49027277   444
Source of the keplerian elements: AFSPC